Year,Month,Day,Hour,Minute,Value (Times are PST for temperature in C)
2018,10,19,00,00,8.00
2018,10,19,00,01,7.90
2018,10,19,00,02,7.90
2018,10,19,00,03,7.90
2018,10,19,00,04,7.90
2018,10,19,00,05,7.90
2018,10,19,00,06,7.90
2018,10,19,00,07,7.80
2018,10,19,00,08,7.80
2018,10,19,00,09,7.80
2018,10,19,00,10,7.80
2018,10,19,00,11,7.80
2018,10,19,00,12,7.80
2018,10,19,00,13,7.80
2018,10,19,00,14,7.80
2018,10,19,00,15,7.80
2018,10,19,00,16,7.80
2018,10,19,00,17,7.80
2018,10,19,00,18,7.80
2018,10,19,00,19,7.80
2018,10,19,00,20,7.80
2018,10,19,00,21,7.80
2018,10,19,00,22,7.90
2018,10,19,00,23,7.90
2018,10,19,00,24,7.90
2018,10,19,00,25,7.90
2018,10,19,00,26,7.90
2018,10,19,00,27,7.90
2018,10,19,00,28,7.90
2018,10,19,00,29,7.90
2018,10,19,00,30,7.90
2018,10,19,00,31,7.80
2018,10,19,00,32,7.80
2018,10,19,00,33,7.80
2018,10,19,00,34,7.80
2018,10,19,00,35,7.80
2018,10,19,00,36,7.80
2018,10,19,00,37,7.80
2018,10,19,00,38,7.80
2018,10,19,00,39,7.80
2018,10,19,00,40,7.80
2018,10,19,00,41,7.80
2018,10,19,00,42,7.80
2018,10,19,00,43,7.80
2018,10,19,00,44,7.80
2018,10,19,00,45,7.80
2018,10,19,00,46,7.80
2018,10,19,00,47,7.80
2018,10,19,00,48,7.80
2018,10,19,00,49,7.80
2018,10,19,00,50,7.80
2018,10,19,00,51,7.80
2018,10,19,00,52,7.80
2018,10,19,00,53,7.80
2018,10,19,00,54,7.80
2018,10,19,00,55,7.80
2018,10,19,00,56,7.80
2018,10,19,00,57,7.80
2018,10,19,00,58,7.80
2018,10,19,00,59,7.80
2018,10,19,01,00,7.80
2018,10,19,01,01,7.80
2018,10,19,01,02,7.80
2018,10,19,01,03,7.70
2018,10,19,01,04,7.70
2018,10,19,01,05,7.70
2018,10,19,01,06,7.70
2018,10,19,01,07,7.70
2018,10,19,01,08,7.70
2018,10,19,01,09,7.70
2018,10,19,01,10,7.70
2018,10,19,01,11,7.70
2018,10,19,01,12,7.80
2018,10,19,01,13,7.80
2018,10,19,01,14,7.90
2018,10,19,01,15,7.90
2018,10,19,01,16,7.90
2018,10,19,01,17,7.90
2018,10,19,01,18,7.80
2018,10,19,01,19,7.80
2018,10,19,01,20,7.80
2018,10,19,01,21,7.80
2018,10,19,01,22,7.80
2018,10,19,01,23,7.80
2018,10,19,01,24,7.70
2018,10,19,01,25,7.70
2018,10,19,01,26,7.70
2018,10,19,01,27,7.70
2018,10,19,01,28,7.70
2018,10,19,01,29,7.60
2018,10,19,01,30,7.60
2018,10,19,01,31,7.60
2018,10,19,01,32,7.60
2018,10,19,01,33,7.60
2018,10,19,01,34,7.60
2018,10,19,01,35,7.60
2018,10,19,01,36,7.60
2018,10,19,01,37,7.60
2018,10,19,01,38,7.60
2018,10,19,01,39,7.60
2018,10,19,01,40,7.60
2018,10,19,01,41,7.70
2018,10,19,01,42,7.70
2018,10,19,01,43,7.70
2018,10,19,01,44,7.70
2018,10,19,01,45,7.70
2018,10,19,01,46,7.70
2018,10,19,01,47,7.70
2018,10,19,01,48,7.70
2018,10,19,01,49,7.70
2018,10,19,01,50,7.70
2018,10,19,01,51,7.70
2018,10,19,01,52,7.70
2018,10,19,01,53,7.70
2018,10,19,01,54,7.70
2018,10,19,01,55,7.60
2018,10,19,01,56,7.60
2018,10,19,01,57,7.60
2018,10,19,01,58,7.60
2018,10,19,01,59,7.60
2018,10,19,02,00,7.50
2018,10,19,02,01,7.50
2018,10,19,02,02,7.50
2018,10,19,02,03,7.50
2018,10,19,02,04,7.40
2018,10,19,02,05,7.40
2018,10,19,02,06,7.50
2018,10,19,02,07,7.50
2018,10,19,02,08,7.50
2018,10,19,02,09,7.50
2018,10,19,02,10,7.50
2018,10,19,02,11,7.50
2018,10,19,02,12,7.50
2018,10,19,02,13,7.60
2018,10,19,02,14,7.60
2018,10,19,02,15,7.60
2018,10,19,02,16,7.60
2018,10,19,02,17,7.60
2018,10,19,02,18,7.60
2018,10,19,02,19,7.60
2018,10,19,02,20,7.60
2018,10,19,02,21,7.60
2018,10,19,02,22,7.60
2018,10,19,02,23,7.60
2018,10,19,02,24,7.50
2018,10,19,02,25,7.50
2018,10,19,02,26,7.50
2018,10,19,02,27,7.50
2018,10,19,02,28,7.50
2018,10,19,02,29,7.50
2018,10,19,02,30,7.50
2018,10,19,02,31,7.50
2018,10,19,02,32,7.50
2018,10,19,02,33,7.50
2018,10,19,02,34,7.50
2018,10,19,02,35,7.50
2018,10,19,02,36,7.50
2018,10,19,02,37,7.50
2018,10,19,02,38,7.50
2018,10,19,02,39,7.50
2018,10,19,02,40,7.50
2018,10,19,02,41,7.50
2018,10,19,02,42,7.50
2018,10,19,02,43,7.50
2018,10,19,02,44,7.50
2018,10,19,02,45,7.50
2018,10,19,02,46,7.50
2018,10,19,02,47,7.60
2018,10,19,02,48,7.60
2018,10,19,02,49,7.60
2018,10,19,02,50,7.60
2018,10,19,02,51,7.60
2018,10,19,02,52,7.50
2018,10,19,02,53,7.50
2018,10,19,02,54,7.50
2018,10,19,02,55,7.60
2018,10,19,02,56,7.60
2018,10,19,02,57,7.70
2018,10,19,02,58,7.80
2018,10,19,02,59,7.80
2018,10,19,03,00,7.80
2018,10,19,03,01,7.80
2018,10,19,03,02,7.70
2018,10,19,03,03,7.70
2018,10,19,03,04,7.70
2018,10,19,03,05,7.60
2018,10,19,03,06,7.60
2018,10,19,03,07,7.60
2018,10,19,03,08,7.50
2018,10,19,03,09,7.50
2018,10,19,03,10,7.50
2018,10,19,03,11,7.40
2018,10,19,03,12,7.40
2018,10,19,03,13,7.40
2018,10,19,03,14,7.40
2018,10,19,03,15,7.40
2018,10,19,03,16,7.30
2018,10,19,03,17,7.30
2018,10,19,03,18,7.30
2018,10,19,03,19,7.30
2018,10,19,03,20,7.30
2018,10,19,03,21,7.30
2018,10,19,03,22,7.30
2018,10,19,03,23,7.30
2018,10,19,03,24,7.30
2018,10,19,03,25,7.30
2018,10,19,03,26,7.30
2018,10,19,03,27,7.30
2018,10,19,03,28,7.30
2018,10,19,03,29,7.30
2018,10,19,03,30,7.30
2018,10,19,03,31,7.30
2018,10,19,03,32,7.40
2018,10,19,03,33,7.40
2018,10,19,03,34,7.40
2018,10,19,03,35,7.30
2018,10,19,03,36,7.30
2018,10,19,03,37,7.30
2018,10,19,03,38,7.30
2018,10,19,03,39,7.30
2018,10,19,03,40,7.30
2018,10,19,03,41,7.30
2018,10,19,03,42,7.30
2018,10,19,03,43,7.30
2018,10,19,03,44,7.30
2018,10,19,03,45,7.30
2018,10,19,03,46,7.30
2018,10,19,03,47,7.30
2018,10,19,03,48,7.30
2018,10,19,03,49,7.30
2018,10,19,03,50,7.30
2018,10,19,03,51,7.30
2018,10,19,03,52,7.30
2018,10,19,03,53,7.30
2018,10,19,03,54,7.30
2018,10,19,03,55,7.30
2018,10,19,03,56,7.30
2018,10,19,03,57,7.30
2018,10,19,03,58,7.20
2018,10,19,03,59,7.20
2018,10,19,04,00,7.20
2018,10,19,04,01,7.20
2018,10,19,04,02,7.20
2018,10,19,04,03,7.20
2018,10,19,04,04,7.20
2018,10,19,04,05,7.20
2018,10,19,04,06,7.20
2018,10,19,04,07,7.20
2018,10,19,08,22,7.10
2018,10,19,08,23,7.20
2018,10,19,08,24,7.20
2018,10,19,08,25,7.20
2018,10,19,08,26,7.20
2018,10,19,08,27,7.20
2018,10,19,08,28,7.20
2018,10,19,08,29,7.20
2018,10,19,08,30,7.20
2018,10,19,08,31,7.20
2018,10,19,08,32,7.20
2018,10,19,08,33,7.20
2018,10,19,08,34,7.20
2018,10,19,08,35,7.30
2018,10,19,08,36,7.30
2018,10,19,08,37,7.40
2018,10,19,08,38,7.50
2018,10,19,08,39,7.60
2018,10,19,08,40,7.60
2018,10,19,08,41,7.60
2018,10,19,08,42,7.60
2018,10,19,08,43,7.60
2018,10,19,08,44,7.60
2018,10,19,08,45,7.60
2018,10,19,08,46,7.70
2018,10,19,08,47,7.70
2018,10,19,08,48,7.70
2018,10,19,08,49,7.70
2018,10,19,08,50,7.80
2018,10,19,08,51,7.80
2018,10,19,08,52,7.90
2018,10,19,08,53,7.90
2018,10,19,08,54,7.90
2018,10,19,08,55,7.90
2018,10,19,08,56,7.90
2018,10,19,08,57,7.90
2018,10,19,08,58,7.90
2018,10,19,08,59,7.90
2018,10,19,09,00,8.00
2018,10,19,09,01,8.00
2018,10,19,09,02,8.10
2018,10,19,09,03,8.20
2018,10,19,09,04,8.20
2018,10,19,09,05,8.30
2018,10,19,09,06,8.30
2018,10,19,09,07,8.40
2018,10,19,09,08,8.40
2018,10,19,09,09,8.50
2018,10,19,09,10,8.50
2018,10,19,09,11,8.60
2018,10,19,09,12,8.60
2018,10,19,09,13,8.70
2018,10,19,09,14,8.80
2018,10,19,09,15,8.90
2018,10,19,09,16,9.00
2018,10,19,09,17,9.10
2018,10,19,09,18,9.10
2018,10,19,09,19,9.20
2018,10,19,09,20,9.20
2018,10,19,09,21,9.30
2018,10,19,09,22,9.40
2018,10,19,09,23,9.40
2018,10,19,09,24,9.40
2018,10,19,09,25,9.40
2018,10,19,09,26,9.50
2018,10,19,09,27,9.60
2018,10,19,09,28,9.70
2018,10,19,09,29,9.80
2018,10,19,09,30,10.00
2018,10,19,09,31,10.10
2018,10,19,09,32,10.10
2018,10,19,09,33,10.10
2018,10,19,09,34,10.20
2018,10,19,09,35,10.20
2018,10,19,09,36,10.30
2018,10,19,09,37,10.30
2018,10,19,09,38,10.30
2018,10,19,09,39,10.30
2018,10,19,09,40,10.30
2018,10,19,09,41,10.30
2018,10,19,09,42,10.30
2018,10,19,09,43,10.30
2018,10,19,09,44,10.30
2018,10,19,09,45,10.30
2018,10,19,09,46,10.40
2018,10,19,09,47,10.50
2018,10,19,09,48,10.60
2018,10,19,09,49,10.80
2018,10,19,09,50,11.00
2018,10,19,09,51,11.10
2018,10,19,09,52,11.20
2018,10,19,09,53,11.20
2018,10,19,09,54,11.30
2018,10,19,09,55,11.30
2018,10,19,09,56,11.50
2018,10,19,09,57,11.70
2018,10,19,09,58,11.80
2018,10,19,09,59,11.90
2018,10,19,10,00,11.90
2018,10,19,10,01,12.00
2018,10,19,10,02,12.00
2018,10,19,10,03,12.10
2018,10,19,10,04,12.20
2018,10,19,10,05,12.20
2018,10,19,10,06,12.20
2018,10,19,10,07,12.20
2018,10,19,10,08,12.20
2018,10,19,10,09,12.20
2018,10,19,10,10,12.20
2018,10,19,10,11,12.20
2018,10,19,10,12,12.30
2018,10,19,10,13,12.30
2018,10,19,10,14,12.40
2018,10,19,10,15,12.40
2018,10,19,10,16,12.50
2018,10,19,10,17,12.60
2018,10,19,10,18,12.70
2018,10,19,10,19,12.90
2018,10,19,10,20,13.00
2018,10,19,10,21,13.20
2018,10,19,10,22,13.30
2018,10,19,10,23,13.30
2018,10,19,10,24,13.40
2018,10,19,10,25,13.50
2018,10,19,10,26,13.50
2018,10,19,10,27,13.60
2018,10,19,10,28,13.70
2018,10,19,10,29,13.70
2018,10,19,10,30,13.80
2018,10,19,10,31,13.80
2018,10,19,10,32,13.80
2018,10,19,10,33,13.80
2018,10,19,10,34,13.90
2018,10,19,10,35,14.00
2018,10,19,10,36,14.10
2018,10,19,10,37,14.10
2018,10,19,10,38,14.20
2018,10,19,10,39,14.20
2018,10,19,10,40,14.20
2018,10,19,10,41,14.10
2018,10,19,10,42,14.00
2018,10,19,10,43,13.90
2018,10,19,10,44,13.90
2018,10,19,10,45,13.90
2018,10,19,10,46,13.90
2018,10,19,10,47,14.00
2018,10,19,10,48,14.10
2018,10,19,10,49,14.20
2018,10,19,10,50,14.20
2018,10,19,10,51,14.20
2018,10,19,10,52,14.20
2018,10,19,10,53,14.20
2018,10,19,10,54,14.20
2018,10,19,10,55,14.30
2018,10,19,10,56,14.40
2018,10,19,10,57,14.50
2018,10,19,10,58,14.60
2018,10,19,10,59,14.70
2018,10,19,11,00,14.80
2018,10,19,11,01,14.80
2018,10,19,11,02,14.80
2018,10,19,11,03,14.80
2018,10,19,11,04,14.70
2018,10,19,11,05,14.70
2018,10,19,11,06,14.80
2018,10,19,11,07,14.80
2018,10,19,11,08,14.80
2018,10,19,11,09,14.80
2018,10,19,11,10,14.90
2018,10,19,11,11,15.00
2018,10,19,11,12,14.90
2018,10,19,11,13,14.80
2018,10,19,11,14,14.80
2018,10,19,11,15,14.70
2018,10,19,11,16,14.70
2018,10,19,11,17,14.80
2018,10,19,11,18,14.90
2018,10,19,11,19,15.00
2018,10,19,11,20,15.00
2018,10,19,11,21,15.00
2018,10,19,11,22,15.10
2018,10,19,11,23,15.20
2018,10,19,11,24,15.20
2018,10,19,11,25,15.20
2018,10,19,11,26,15.30
2018,10,19,11,27,15.30
2018,10,19,11,28,15.30
2018,10,19,11,29,15.30
2018,10,19,11,30,15.30
2018,10,19,11,31,15.30
2018,10,19,11,32,15.30
2018,10,19,11,33,15.30
2018,10,19,11,34,15.20
2018,10,19,11,35,15.10
2018,10,19,11,36,15.10
2018,10,19,11,37,15.00
2018,10,19,11,38,15.00
2018,10,19,11,39,15.00
2018,10,19,11,40,15.00
2018,10,19,11,41,15.10
2018,10,19,11,42,15.20
2018,10,19,11,43,15.20
2018,10,19,11,44,15.20
2018,10,19,11,45,15.20
2018,10,19,11,46,15.30
2018,10,19,11,47,15.30
2018,10,19,11,48,15.40
2018,10,19,11,49,15.40
2018,10,19,11,50,15.50
2018,10,19,11,51,15.50
2018,10,19,11,52,15.50
2018,10,19,11,53,15.50
2018,10,19,11,54,15.40
2018,10,19,11,55,15.50
2018,10,19,11,56,15.50
2018,10,19,11,57,15.50
2018,10,19,11,58,15.50
2018,10,19,11,59,15.60
2018,10,19,12,00,15.60
2018,10,19,12,01,15.60
2018,10,19,12,02,15.60
2018,10,19,12,03,15.50
2018,10,19,12,04,15.40
2018,10,19,12,05,15.30
2018,10,19,12,06,15.20
2018,10,19,12,07,15.10
2018,10,19,12,08,15.00
2018,10,19,12,09,15.00
2018,10,19,12,10,15.00
2018,10,19,12,11,15.00
2018,10,19,12,12,15.00
2018,10,19,12,13,15.00
2018,10,19,12,14,15.00
2018,10,19,12,15,15.00
2018,10,19,12,16,15.00
2018,10,19,12,17,15.00
2018,10,19,12,18,15.00
2018,10,19,12,19,15.00
2018,10,19,12,20,14.90
2018,10,19,12,21,14.80
2018,10,19,12,22,14.80
2018,10,19,12,23,14.80
2018,10,19,12,24,14.80
2018,10,19,12,25,14.70
2018,10,19,12,26,14.60
2018,10,19,12,27,14.60
2018,10,19,12,28,14.60
2018,10,19,12,29,14.60
2018,10,19,12,30,14.70
2018,10,19,12,31,14.70
2018,10,19,12,32,14.70
2018,10,19,12,33,14.70
2018,10,19,12,34,14.80
2018,10,19,12,35,14.80
2018,10,19,12,36,14.80
2018,10,19,12,37,14.80
2018,10,19,12,38,14.90
2018,10,19,12,39,15.00
2018,10,19,12,40,15.00
2018,10,19,12,41,15.00
2018,10,19,12,42,14.90
2018,10,19,12,43,14.80
2018,10,19,12,44,14.80
2018,10,19,12,45,14.70
2018,10,19,12,46,14.70
2018,10,19,12,47,14.80
2018,10,19,12,48,14.80
2018,10,19,12,49,14.80
2018,10,19,12,50,14.80
2018,10,19,12,51,14.70
2018,10,19,12,52,14.60
2018,10,19,12,53,14.60
2018,10,19,12,54,14.50
2018,10,19,12,55,14.50
2018,10,19,12,56,14.50
2018,10,19,12,57,14.50
2018,10,19,12,58,14.50
2018,10,19,12,59,14.50
2018,10,19,13,00,14.40
2018,10,19,13,01,14.30
2018,10,19,13,02,14.20
2018,10,19,13,03,14.20
2018,10,19,13,04,14.20
2018,10,19,13,05,14.10
2018,10,19,13,06,14.00
2018,10,19,13,07,14.00
2018,10,19,13,08,14.00
2018,10,19,13,09,14.00
2018,10,19,13,10,13.90
2018,10,19,13,11,13.90
2018,10,19,13,12,14.00
2018,10,19,13,13,14.00
2018,10,19,13,14,14.10
2018,10,19,13,15,14.20
2018,10,19,13,16,14.30
2018,10,19,13,17,14.30
2018,10,19,13,18,14.40
2018,10,19,13,19,14.40
2018,10,19,13,20,14.50
2018,10,19,13,21,14.60
2018,10,19,13,22,14.60
2018,10,19,13,23,14.70
2018,10,19,13,24,14.70
2018,10,19,13,25,14.70
2018,10,19,13,26,14.80
2018,10,19,13,27,14.90
2018,10,19,13,28,15.00
2018,10,19,13,29,15.00
2018,10,19,13,30,15.00
2018,10,19,13,31,15.00
2018,10,19,13,32,15.00
2018,10,19,13,33,15.00
2018,10,19,13,34,15.00
2018,10,19,13,35,15.00
2018,10,19,13,36,15.00
2018,10,19,13,37,15.00
2018,10,19,13,38,15.00
2018,10,19,13,39,14.80
2018,10,19,13,40,14.80
2018,10,19,13,41,14.70
2018,10,19,13,42,14.70
2018,10,19,13,43,14.60
2018,10,19,13,44,14.60
2018,10,19,13,45,14.60
2018,10,19,13,46,14.60
2018,10,19,13,47,14.50
2018,10,19,13,48,14.50
2018,10,19,13,49,14.40
2018,10,19,13,50,14.50
2018,10,19,13,51,14.60
2018,10,19,13,52,14.50
2018,10,19,13,53,14.40
2018,10,19,13,54,14.40
2018,10,19,13,55,14.50
2018,10,19,13,56,14.50
2018,10,19,13,57,14.60
2018,10,19,13,58,14.60
2018,10,19,13,59,14.60
2018,10,19,14,00,14.70
2018,10,19,14,01,14.60
2018,10,19,14,02,14.60
2018,10,19,14,03,14.60
2018,10,19,14,04,14.60
2018,10,19,14,05,14.60
2018,10,19,14,06,14.50
2018,10,19,14,07,14.50
2018,10,19,14,08,14.40
2018,10,19,14,09,14.40
2018,10,19,14,10,14.40
2018,10,19,14,11,14.50
2018,10,19,14,12,14.50
2018,10,19,14,13,14.50
2018,10,19,14,14,14.60
2018,10,19,14,15,14.60
2018,10,19,14,16,14.60
2018,10,19,14,17,14.60
2018,10,19,14,18,14.50
2018,10,19,14,19,14.40
2018,10,19,14,20,14.40
2018,10,19,14,21,14.30
2018,10,19,14,22,14.20
2018,10,19,14,23,14.20
2018,10,19,14,24,14.20
2018,10,19,14,25,14.10
2018,10,19,14,26,14.10
2018,10,19,14,27,14.10
2018,10,19,14,28,14.10
2018,10,19,14,29,14.10
2018,10,19,14,30,14.10
2018,10,19,14,31,14.10
2018,10,19,14,32,14.10
2018,10,19,14,33,14.10
2018,10,19,14,34,14.10
2018,10,19,14,35,14.10
2018,10,19,14,36,14.10
2018,10,19,14,37,14.10
2018,10,19,14,38,14.20
2018,10,19,14,39,14.20
2018,10,19,14,40,14.20
2018,10,19,14,41,14.30
2018,10,19,14,42,14.30
2018,10,19,14,43,14.20
2018,10,19,14,44,14.30
2018,10,19,14,45,14.20
2018,10,19,14,46,14.10
2018,10,19,14,47,14.00
2018,10,19,14,48,13.90
2018,10,19,14,49,13.90
2018,10,19,14,50,13.80
2018,10,19,14,51,13.80
2018,10,19,14,52,13.90
2018,10,19,14,53,14.00
2018,10,19,14,54,14.00
2018,10,19,14,55,14.10
2018,10,19,14,56,14.20
2018,10,19,14,57,14.20
2018,10,19,14,58,14.30
2018,10,19,14,59,14.40
2018,10,19,15,00,14.40
2018,10,19,15,01,14.50
2018,10,19,15,02,14.50
2018,10,19,15,03,14.60
2018,10,19,15,04,14.60
2018,10,19,15,05,14.60
2018,10,19,15,06,14.60
2018,10,19,15,07,14.60
2018,10,19,15,08,14.60
2018,10,19,15,09,14.60
2018,10,19,15,10,14.60
2018,10,19,15,11,14.60
2018,10,19,15,12,14.50
2018,10,19,15,13,14.40
2018,10,19,15,14,14.40
2018,10,19,15,15,14.40
2018,10,19,15,16,14.40
2018,10,19,15,17,14.40
2018,10,19,15,18,14.40
2018,10,19,15,19,14.40
2018,10,19,15,20,14.40
2018,10,19,15,21,14.30
2018,10,19,15,22,14.30
2018,10,19,15,23,14.30
2018,10,19,15,24,14.30
2018,10,19,15,25,14.30
2018,10,19,15,26,14.30
2018,10,19,15,27,14.40
2018,10,19,15,28,14.40
2018,10,19,15,29,14.50
2018,10,19,15,30,14.50
2018,10,19,15,31,14.60
2018,10,19,15,32,14.60
2018,10,19,15,33,14.60
2018,10,19,15,34,14.60
2018,10,19,15,35,14.60
2018,10,19,15,36,14.70
2018,10,19,15,37,14.80
2018,10,19,15,38,14.80
2018,10,19,15,39,14.90
2018,10,19,15,40,14.90
2018,10,19,15,41,15.00
2018,10,19,15,42,15.00
2018,10,19,15,43,15.00
2018,10,19,15,44,15.00
2018,10,19,15,45,15.00
2018,10,19,15,46,15.00
2018,10,19,15,47,15.00
2018,10,19,15,48,15.00
2018,10,19,15,49,15.10
2018,10,19,15,50,15.10
2018,10,19,15,51,15.10
2018,10,19,15,52,15.10
2018,10,19,15,53,15.20
2018,10,19,15,54,15.20
2018,10,19,15,55,15.20
2018,10,19,15,56,15.20
2018,10,19,15,57,15.20
2018,10,19,15,58,15.20
2018,10,19,15,59,15.20
2018,10,19,16,00,15.20
2018,10,19,16,01,15.20
2018,10,19,16,02,15.20
2018,10,19,16,03,15.20
2018,10,19,16,04,15.20
2018,10,19,16,05,15.30
2018,10,19,16,06,15.30
2018,10,19,16,07,15.30
2018,10,19,16,08,15.30
2018,10,19,16,09,15.30
2018,10,19,16,10,15.30
2018,10,19,16,11,15.30
2018,10,19,16,12,15.30
2018,10,19,16,13,15.30
2018,10,19,16,14,15.30
2018,10,19,16,15,15.40
2018,10,19,16,16,15.40
2018,10,19,16,17,15.40
2018,10,19,16,18,15.30
2018,10,19,16,19,15.30
2018,10,19,16,20,15.30
2018,10,19,16,21,15.30
2018,10,19,16,22,15.30
2018,10,19,16,23,15.30
2018,10,19,16,24,15.20
2018,10,19,16,25,15.10
2018,10,19,16,26,15.00
2018,10,19,16,27,15.00
2018,10,19,16,28,15.00
2018,10,19,16,29,14.90
2018,10,19,16,30,14.80
2018,10,19,16,31,14.70
2018,10,19,16,32,14.60
2018,10,19,16,33,14.50
2018,10,19,16,34,14.40
2018,10,19,16,35,14.30
2018,10,19,16,36,14.30
2018,10,19,16,37,14.30
2018,10,19,16,38,14.20
2018,10,19,16,39,14.20
2018,10,19,16,40,14.20
2018,10,19,16,41,14.10
2018,10,19,16,42,14.10
2018,10,19,16,43,14.10
2018,10,19,16,44,14.10
2018,10,19,16,45,14.00
2018,10,19,16,46,14.00
2018,10,19,16,47,14.00
2018,10,19,16,48,14.00
2018,10,19,16,49,14.00
2018,10,19,16,50,13.90
2018,10,19,16,51,13.90
2018,10,19,16,52,13.90
2018,10,19,16,53,13.80
2018,10,19,16,54,13.80
2018,10,19,16,55,13.80
2018,10,19,16,56,13.80
2018,10,19,16,57,13.80
2018,10,19,16,58,13.80
2018,10,19,16,59,13.80
2018,10,19,17,00,13.80
2018,10,19,17,01,13.80
2018,10,19,17,02,13.90
2018,10,19,17,03,13.90
2018,10,19,17,04,13.90
2018,10,19,17,05,13.90
2018,10,19,17,06,13.90
2018,10,19,17,07,13.90
2018,10,19,17,08,13.90
2018,10,19,17,09,13.90
2018,10,19,17,10,13.90
2018,10,19,17,11,13.80
2018,10,19,17,12,13.80
2018,10,19,17,13,13.70
2018,10,19,17,14,13.70
2018,10,19,17,15,13.70
2018,10,19,17,16,13.60
2018,10,19,17,17,13.60
2018,10,19,17,18,13.60
2018,10,19,17,19,13.50
2018,10,19,17,20,13.50
2018,10,19,17,21,13.50
2018,10,19,17,22,13.40
2018,10,19,17,23,13.40
2018,10,19,17,24,13.40
2018,10,19,17,25,13.40
2018,10,19,17,26,13.30
2018,10,19,17,27,13.30
2018,10,19,17,28,13.30
2018,10,19,17,29,13.30
2018,10,19,17,30,13.30
2018,10,19,17,31,13.30
2018,10,19,17,32,13.30
2018,10,19,17,33,13.30
2018,10,19,17,34,13.20
2018,10,19,17,35,13.20
2018,10,19,17,36,13.10
2018,10,19,17,37,13.10
2018,10,19,17,38,13.10
2018,10,19,17,39,13.00
2018,10,19,17,40,13.00
2018,10,19,17,41,12.90
2018,10,19,17,42,12.80
2018,10,19,17,43,12.80
2018,10,19,17,44,12.80
2018,10,19,17,45,12.70
2018,10,19,17,46,12.70
2018,10,19,17,47,12.60
2018,10,19,17,48,12.60
2018,10,19,17,49,12.50
2018,10,19,17,50,12.50
2018,10,19,17,51,12.40
2018,10,19,17,52,12.40
2018,10,19,17,53,12.30
2018,10,19,17,54,12.30
2018,10,19,17,55,12.30
2018,10,19,17,56,12.20
2018,10,19,17,57,12.20
2018,10,19,17,58,12.20
2018,10,19,17,59,12.10
2018,10,19,18,00,12.10
2018,10,19,18,01,12.10
2018,10,19,18,02,12.00
2018,10,19,18,03,12.00
2018,10,19,18,04,11.90
2018,10,19,18,05,11.90
2018,10,19,18,06,11.90
2018,10,19,18,07,11.80
2018,10,19,18,08,11.80
2018,10,19,18,09,11.80
2018,10,19,18,10,11.80
2018,10,19,18,11,11.70
2018,10,19,18,12,11.70
2018,10,19,18,13,11.70
2018,10,19,18,14,11.70
2018,10,19,18,15,11.60
2018,10,19,18,16,11.60
2018,10,19,18,17,11.50
2018,10,19,18,18,11.50
2018,10,19,18,19,11.40
2018,10,19,18,20,11.40
2018,10,19,18,21,11.30
2018,10,19,18,22,11.30
2018,10,19,18,23,11.30
2018,10,19,18,24,11.20
2018,10,19,18,25,11.20
2018,10,19,18,26,11.20
2018,10,19,18,27,11.20
2018,10,19,18,28,11.10
2018,10,19,18,29,11.10
2018,10,19,18,30,11.10
2018,10,19,18,31,11.00
2018,10,19,18,32,11.00
2018,10,19,18,33,10.90
2018,10,19,18,34,10.90
2018,10,19,18,35,10.90
2018,10,19,18,36,10.90
2018,10,19,18,37,10.80
2018,10,19,18,38,10.80
2018,10,19,18,39,10.80
2018,10,19,18,40,10.80
2018,10,19,18,41,10.80
2018,10,19,18,42,10.80
2018,10,19,18,43,10.70
2018,10,19,18,44,10.70
2018,10,19,18,45,10.70
2018,10,19,18,46,10.70
2018,10,19,18,47,10.70
2018,10,19,18,48,10.70
2018,10,19,18,49,10.60
2018,10,19,18,50,10.60
2018,10,19,18,51,10.60
2018,10,19,18,52,10.60
2018,10,19,18,53,10.60
2018,10,19,18,54,10.60
2018,10,19,18,55,10.50
2018,10,19,18,56,10.50
2018,10,19,18,57,10.50
2018,10,19,18,58,10.40
2018,10,19,18,59,10.40
2018,10,19,19,00,10.40
2018,10,19,19,01,10.40
2018,10,19,19,02,10.30
2018,10,19,19,03,10.30
2018,10,19,19,04,10.30
2018,10,19,19,05,10.30
2018,10,19,19,06,10.20
2018,10,19,19,07,10.20
2018,10,19,19,08,10.20
2018,10,19,19,09,10.20
2018,10,19,19,10,10.20
2018,10,19,19,11,10.10
2018,10,19,19,12,10.10
2018,10,19,19,13,10.10
2018,10,19,19,14,10.10
2018,10,19,19,15,10.10
2018,10,19,19,16,10.00
2018,10,19,19,17,10.00
2018,10,19,19,18,10.00
2018,10,19,19,19,10.00
2018,10,19,19,20,9.90
2018,10,19,19,21,9.90
2018,10,19,19,22,9.90
2018,10,19,19,23,9.90
2018,10,19,19,24,9.90
2018,10,19,19,25,9.80
2018,10,19,19,26,9.80
2018,10,19,19,27,9.80
2018,10,19,19,28,9.80
2018,10,19,19,29,9.80
2018,10,19,19,30,9.70
2018,10,19,19,31,9.70
2018,10,19,19,32,9.70
2018,10,19,19,33,9.70
2018,10,19,19,34,9.70
2018,10,19,19,35,9.60
2018,10,19,19,36,9.60
2018,10,19,19,37,9.60
2018,10,19,19,38,9.60
2018,10,19,19,39,9.60
2018,10,19,19,40,9.60
2018,10,19,19,41,9.60
2018,10,19,19,42,9.60
2018,10,19,19,43,9.60
2018,10,19,19,44,9.60
2018,10,19,19,45,9.60
2018,10,19,19,46,9.60
2018,10,19,19,47,9.50
2018,10,19,19,48,9.50
2018,10,19,19,49,9.50
2018,10,19,19,50,9.50
2018,10,19,19,51,9.50
2018,10,19,19,52,9.50
2018,10,19,19,53,9.40
2018,10,19,19,54,9.40
2018,10,19,19,55,9.40
2018,10,19,19,56,9.40
2018,10,19,19,57,9.40
2018,10,19,19,58,9.30
2018,10,19,19,59,9.30
2018,10,19,20,00,9.30
2018,10,19,20,01,9.30
2018,10,19,20,02,9.30
2018,10,19,20,03,9.30
2018,10,19,20,04,9.30
2018,10,19,20,05,9.30
2018,10,19,20,06,9.30
2018,10,19,20,07,9.30
2018,10,19,20,08,9.30
2018,10,19,20,09,9.30
2018,10,19,20,10,9.30
2018,10,19,20,11,9.20
2018,10,19,20,12,9.20
2018,10,19,20,13,9.20
2018,10,19,20,14,9.20
2018,10,19,20,15,9.20
2018,10,19,20,16,9.20
2018,10,19,20,17,9.10
2018,10,19,20,18,9.10
2018,10,19,20,19,9.10
2018,10,19,20,20,9.10
2018,10,19,20,21,9.10
2018,10,19,20,22,9.10
2018,10,19,20,23,9.10
2018,10,19,20,24,9.20
2018,10,19,20,25,9.20
2018,10,19,20,26,9.10
2018,10,19,20,27,9.10
2018,10,19,20,28,9.10
2018,10,19,20,29,9.00
2018,10,19,20,30,9.00
2018,10,19,20,31,8.90
2018,10,19,20,32,8.90
2018,10,19,20,33,8.90
2018,10,19,20,34,8.90
2018,10,19,20,35,8.90
2018,10,19,20,36,8.80
2018,10,19,20,37,8.80
2018,10,19,20,38,8.80
2018,10,19,20,39,8.80
2018,10,19,20,40,8.80
2018,10,19,20,41,8.80
2018,10,19,20,42,8.70
2018,10,19,20,43,8.80
2018,10,19,20,44,8.80
2018,10,19,20,45,8.80
2018,10,19,20,46,8.80
2018,10,19,20,47,8.80
2018,10,19,20,48,8.80
2018,10,19,20,49,8.80
2018,10,19,20,50,8.80
2018,10,19,20,51,8.70
2018,10,19,20,52,8.70
2018,10,19,20,53,8.70
2018,10,19,20,54,8.70
2018,10,19,20,55,8.70
2018,10,19,20,56,8.70
2018,10,19,20,57,8.70
2018,10,19,20,58,8.70
2018,10,19,20,59,8.70
2018,10,19,21,00,8.80
2018,10,19,21,01,8.80
2018,10,19,21,02,8.80
2018,10,19,21,03,8.70
2018,10,19,21,04,8.70
2018,10,19,21,05,8.70
2018,10,19,21,06,8.70
2018,10,19,21,07,8.70
2018,10,19,21,08,8.70
2018,10,19,21,09,8.70
2018,10,19,21,10,8.70
2018,10,19,21,11,8.70
2018,10,19,21,12,8.60
2018,10,19,21,13,8.60
2018,10,19,21,14,8.50
2018,10,19,21,15,8.50
2018,10,19,21,16,8.40
2018,10,19,21,17,8.40
2018,10,19,21,18,8.40
2018,10,19,21,19,8.40
2018,10,19,21,20,8.40
2018,10,19,21,21,8.40
2018,10,19,21,22,8.40
2018,10,19,21,23,8.30
2018,10,19,21,24,8.30
2018,10,19,21,25,8.30
2018,10,19,21,26,8.20
2018,10,19,21,27,8.20
2018,10,19,21,28,8.20
2018,10,19,21,29,8.20
2018,10,19,21,30,8.20
2018,10,19,21,31,8.20
2018,10,19,21,32,8.20
2018,10,19,21,33,8.20
2018,10,19,21,34,8.20
2018,10,19,21,35,8.20
2018,10,19,21,36,8.30
2018,10,19,21,37,8.20
2018,10,19,21,38,8.20
2018,10,19,21,39,8.20
2018,10,19,21,40,8.20
2018,10,19,21,41,8.20
2018,10,19,21,42,8.20
2018,10,19,21,43,8.20
2018,10,19,21,44,8.20
2018,10,19,21,45,8.20
2018,10,19,21,46,8.20
2018,10,19,21,47,8.20
2018,10,19,21,48,8.20
2018,10,19,21,49,8.20
2018,10,19,21,50,8.20
2018,10,19,21,51,8.20
2018,10,19,21,52,8.20
2018,10,19,21,53,8.20